{"data":{"norad_id":54654,"epoch":"2026-05-25T01:07:56.174016Z","epoch_age_seconds":81527,"freshness":"FRESH","line1":"1 54654U 22166N   26145.04717794  .00000000  00000+0 -32121-4 0  9991","line2":"2 54654  87.9264 248.5709 0001635 104.8049 255.3266 13.21826970168629","mean_motion":13.2182697,"eccentricity":0.0001635,"inclination_deg":87.9264,"raan_deg":248.5709,"arg_perigee_deg":104.8049,"mean_anomaly_deg":255.3266,"bstar":-3.2121e-5,"rev_number":16862,"period_min":108.94012852529,"perigee_km":1176.5142843897,"apogee_km":1178.9850593314,"semimajor_km":7555.8866718606,"source":"CELESTRAK","updated_at":"2026-05-25T13:38:22.630139Z"}}